TimeCDT,TemperatureF,Dew PointF,Humidity,Sea Level PressureIn,VisibilityMPH,Wind Direction,Wind SpeedMPH,Gust SpeedMPH,PrecipitationIn,Events,Conditions,WindDirDegrees,DateUTC
12:15 AM,48.6,44.2,85,29.80,10.0,SW,6.9,-,N/A,,Mostly Cloudy,230,2012-10-20 05:15:00
12:35 AM,48.4,44.1,85,29.80,10.0,WSW,6.9,-,N/A,,Mostly Cloudy,240,2012-10-20 05:35:00
12:55 AM,47.7,43.9,87,29.80,10.0,SW,6.9,-,N/A,,Scattered Clouds,230,2012-10-20 05:55:00
1:15 AM,46.9,43.7,88,29.81,10.0,SW,6.9,-,N/A,,Clear,230,2012-10-20 06:15:00
1:35 AM,46.8,43.9,90,29.81,10.0,SW,6.9,-,N/A,,Scattered Clouds,230,2012-10-20 06:35:00
1:55 AM,48.2,44.8,88,29.82,10.0,WSW,5.8,-,N/A,,Mostly Cloudy,240,2012-10-20 06:55:00
2:15 AM,48.6,45.1,88,29.82,7.0,WSW,6.9,-,N/A,,Overcast,240,2012-10-20 07:15:00
2:35 AM,48.7,45.1,87,29.82,10.0,WSW,5.8,-,N/A,,Mostly Cloudy,240,2012-10-20 07:35:00
2:55 AM,47.5,44.6,90,29.82,10.0,SW,5.8,-,N/A,,Scattered Clouds,230,2012-10-20 07:55:00
3:15 AM,46.9,44.6,92,29.82,10.0,SW,6.9,-,N/A,,Clear,230,2012-10-20 08:15:00
3:35 AM,46.8,44.6,92,29.82,10.0,SW,6.9,-,N/A,,Clear,230,2012-10-20 08:35:00
3:55 AM,46.4,44.2,92,29.82,10.0,SW,6.9,-,N/A,,Clear,230,2012-10-20 08:55:00
4:15 AM,46.4,44.8,94,29.82,10.0,SW,4.6,-,N/A,,Mostly Cloudy,220,2012-10-20 09:15:00
4:35 AM,48.2,45.7,91,29.82,10.0,SW,5.8,-,N/A,,Overcast,220,2012-10-20 09:35:00
4:55 AM,48.7,45.7,89,29.82,10.0,SW,6.9,-,N/A,,Overcast,220,2012-10-20 09:55:00
5:15 AM,49.1,45.5,87,29.83,10.0,SW,6.9,-,N/A,,Overcast,230,2012-10-20 10:15:00
5:35 AM,49.3,45.9,88,29.83,10.0,SW,6.9,-,N/A,,Overcast,230,2012-10-20 10:35:00
5:55 AM,49.5,45.9,87,29.84,10.0,SW,6.9,-,N/A,,Overcast,230,2012-10-20 10:55:00
6:15 AM,49.6,46.4,89,29.84,10.0,SW,5.8,-,N/A,,Overcast,230,2012-10-20 11:15:00
6:35 AM,49.5,46.2,89,29.85,10.0,SW,6.9,-,N/A,,Overcast,220,2012-10-20 11:35:00
6:55 AM,49.5,46.2,89,29.86,10.0,SW,5.8,-,N/A,,Overcast,230,2012-10-20 11:55:00
7:15 AM,49.6,46.4,89,29.86,10.0,SW,5.8,-,N/A,,Overcast,230,2012-10-20 12:15:00
7:35 AM,50.0,46.6,88,29.87,10.0,SW,4.6,-,N/A,,Overcast,230,2012-10-20 12:35:00
7:55 AM,50.2,46.6,87,29.88,10.0,SW,5.8,-,N/A,,Overcast,230,2012-10-20 12:55:00
8:15 AM,50.9,46.6,85,29.89,10.0,SW,5.8,-,N/A,,Overcast,230,2012-10-20 13:15:00
8:35 AM,51.1,46.2,83,29.90,10.0,SW,8.1,-,N/A,,Overcast,230,2012-10-20 13:35:00
8:55 AM,51.4,46.4,83,29.91,10.0,WSW,8.1,-,N/A,,Overcast,240,2012-10-20 13:55:00
9:15 AM,52.2,46.6,81,29.92,10.0,WSW,10.4,-,N/A,,Overcast,240,2012-10-20 14:15:00
9:35 AM,52.7,46.2,79,29.92,10.0,WSW,9.2,-,N/A,,Overcast,240,2012-10-20 14:35:00
9:55 AM,53.6,46.6,77,29.92,10.0,West,9.2,-,N/A,,Overcast,260,2012-10-20 14:55:00
10:15 AM,54.1,46.8,76,29.92,7.0,West,9.2,-,N/A,,Overcast,260,2012-10-20 15:15:00
10:35 AM,54.0,46.6,76,29.93,7.0,WSW,10.4,-,N/A,,Overcast,240,2012-10-20 15:35:00
10:55 AM,54.5,46.8,75,29.93,10.0,West,9.2,-,N/A,,Overcast,270,2012-10-20 15:55:00
11:15 AM,55.4,46.4,72,29.92,10.0,WSW,5.8,-,N/A,,Overcast,240,2012-10-20 16:15:00
11:35 AM,55.8,46.6,71,29.93,7.0,SW,5.8,-,N/A,,Overcast,220,2012-10-20 16:35:00
11:55 AM,56.3,46.4,69,29.93,10.0,SW,5.8,-,N/A,,Overcast,230,2012-10-20 16:55:00
12:15 PM,56.1,46.6,70,29.94,10.0,SW,9.2,-,N/A,,Overcast,230,2012-10-20 17:15:00
12:35 PM,55.8,46.6,71,29.94,7.0,SW,9.2,-,N/A,,Overcast,230,2012-10-20 17:35:00
1:15 PM,55.9,46.9,72,29.93,10.0,SSW,6.9,-,N/A,,Overcast,210,2012-10-20 18:15:00
1:35 PM,56.5,46.8,70,29.92,10.0,SW,6.9,-,N/A,,Overcast,220,2012-10-20 18:35:00
1:55 PM,56.5,46.4,69,29.92,10.0,WSW,5.8,-,N/A,,Overcast,240,2012-10-20 18:55:00
2:15 PM,57.2,46.6,68,29.91,10.0,SW,3.5,-,N/A,,Overcast,230,2012-10-20 19:15:00
2:35 PM,57.2,46.2,67,29.91,10.0,SW,3.5,-,N/A,,Overcast,220,2012-10-20 19:35:00
2:55 PM,58.1,46.6,65,29.91,10.0,WSW,4.6,-,N/A,,Overcast,240,2012-10-20 19:55:00
3:15 PM,58.3,46.4,65,29.91,10.0,West,4.6,-,N/A,,Overcast,260,2012-10-20 20:15:00
3:35 PM,59.0,46.6,63,29.92,10.0,SW,8.1,-,N/A,,Overcast,230,2012-10-20 20:35:00
3:55 PM,59.0,46.4,63,29.92,10.0,SW,3.5,-,N/A,,Overcast,230,2012-10-20 20:55:00
4:15 PM,60.1,46.6,61,29.91,7.0,Calm,Calm,-,N/A,,Mostly Cloudy,0,2012-10-20 21:15:00
4:35 PM,60.1,46.6,61,29.91,7.0,SSW,3.5,-,N/A,,Scattered Clouds,200,2012-10-20 21:35:00
4:55 PM,59.9,46.0,60,29.92,7.0,Calm,Calm,-,N/A,,Scattered Clouds,0,2012-10-20 21:55:00
5:15 PM,59.9,46.0,60,29.92,10.0,Calm,Calm,-,N/A,,Clear,0,2012-10-20 22:15:00
5:35 PM,58.6,47.7,67,29.92,7.0,NE,4.6,-,N/A,,Clear,50,2012-10-20 22:35:00
5:55 PM,56.7,47.7,72,29.92,10.0,NE,4.6,-,N/A,,Clear,50,2012-10-20 22:55:00
6:15 PM,54.5,46.8,75,29.92,10.0,ENE,4.6,-,N/A,,Clear,60,2012-10-20 23:15:00
6:35 PM,52.7,46.4,79,29.92,10.0,ENE,5.8,-,N/A,,Clear,60,2012-10-20 23:35:00
6:55 PM,52.2,46.6,81,29.93,10.0,ENE,6.9,-,N/A,,Clear,70,2012-10-20 23:55:00
7:15 PM,51.4,46.4,83,29.93,10.0,ENE,5.8,-,N/A,,Clear,70,2012-10-21 00:15:00
7:35 PM,50.7,46.4,85,29.93,10.0,East,8.1,-,N/A,,Clear,90,2012-10-21 00:35:00
7:55 PM,50.0,46.4,87,29.93,7.0,East,6.9,-,N/A,,Clear,80,2012-10-21 00:55:00
8:15 PM,49.1,46.0,89,29.93,7.0,East,5.8,-,N/A,,Clear,100,2012-10-21 01:15:00
8:35 PM,48.4,46.0,92,29.94,10.0,Calm,Calm,-,N/A,,Clear,0,2012-10-21 01:35:00
8:55 PM,48.4,46.0,92,29.94,10.0,East,3.5,-,N/A,,Clear,90,2012-10-21 01:55:00
9:15 PM,47.7,45.5,92,29.95,10.0,East,3.5,-,N/A,,Clear,100,2012-10-21 02:15:00
9:35 PM,47.8,45.9,93,29.96,10.0,Calm,Calm,-,N/A,,Clear,0,2012-10-21 02:35:00
9:55 PM,48.2,46.0,92,29.96,10.0,Calm,Calm,-,N/A,,Clear,0,2012-10-21 02:55:00
10:15 PM,47.7,45.7,93,29.97,10.0,Calm,Calm,-,N/A,,Clear,0,2012-10-21 03:15:00
10:35 PM,47.3,45.5,93,29.97,7.0,ESE,4.6,-,N/A,,Clear,110,2012-10-21 03:35:00
10:55 PM,46.6,45.0,94,29.97,10.0,Calm,Calm,-,N/A,,Clear,0,2012-10-21 03:55:00
11:15 PM,46.8,45.1,94,29.97,10.0,Calm,Calm,-,N/A,,Clear,0,2012-10-21 04:15:00
11:35 PM,46.8,45.1,94,29.97,10.0,Calm,Calm,-,N/A,,Clear,0,2012-10-21 04:35:00
11:55 PM,46.6,45.1,95,29.97,7.0,Calm,Calm,-,N/A,,Clear,0,2012-10-21 04:55:00